Temp
41 41 41 41 42 42 42 43 43 45 45 45 46 46 48 50 51 51 49 48 48 48 47 49 49 51 50 50 50 50 48 47 40 40 42 43 42 42 43 44 44 44 44
41 41 41 41 42 42 42 43 44 45 45 45 46 46 47 51 52 52 50 48 47 46 46 48 49 50 50 49 49 48 47 47 43 39 40 40 40 41 41 40 41 43 43
41 41 40 40 41 42 43 44 44 44 45 45 46 46 49 51 52 52 51 49 48 48 47 47 48 50 49 48 48 47 46 46 45 42 38 40 39 39 37 37 37 37 40
40 40 40 40 41 42 43 43 44 44 44 45 45 46 47 51 52 52 51 50 49 49 49 49 49 49 49 48 47 46 46 44 43 41 38 37 37 37 36 33 32 33 33
40 40 40 41 41 42 42 42 43 44 45 47 45 46 47 50 51 51 50 49 49 49 48 50 50 45 43 46 47 46 45 44 42 39 37 36 34 33 33 33 31 31 31
39 39 40 41 41 40 41 42 42 43 46 47 47 44 46 48 44 45 48 49 49 48 47 46 45 40 43 43 43 45 47 44 42 40 39 36 35 35 33 32 30 29 27
39 38 39 39 40 40 40 41 42 43 46 46 46 44 46 48 44 43 43 49 49 48 47 45 43 41 42 44 42 42 42 44 45 45 40 40 36 36 35 32 33 32 30
38 38 38 38 38 38 39 40 41 44 45 44 44 44 46 46 42 42 41 49 48 47 46 45 44 44 43 43 43 42 42 43 43 43 45 43 41 39 38 37 35 30 31
37 37 38 38 38 38 38 39 41 42 43 44 43 45 45 45 41 41 45 46 45 44 44 44 43 42 39 41 41 37 36 36 40 42 43 42 41 41 39 35 31 29 28
35 36 37 38 39 38 38 37 39 41 39 36 39 41 38 44 41 41 45 45 43 37 40 40 37 43 39 41 40 36 35 34 36 35 38 40 40 39 38 40 35 33 30
33 35 35 36 37 39 39 37 38 38 37 37 37 37 37 37 42 41 43 44 41 37 36 37 37 39 39 40 41 38 37 34 36 35 35 36 35 35 36 35 37 36 25
31 32 31 33 35 36 36 36 35 36 36 34 34 34 34 35 37 40 41 43 42 39 37 35 36 39 40 40 37 38 38 35 34 34 34 33 34 34 33 32 30 29 28
32 32 32 32 33 33 34 34 34 34 34 33 33 34 34 33 34 38 40 41 40 38 36 38 38 39 39 39 38 38 34 34 34 34 34 33 33 30 27 26 25 25 23
32 32 33 32 33 33 33 33 34 34 33 33 34 34 34 33 33 33 34 35 36 35 36 36 37 37 38 36 35 35 34 34 35 35 33 27 27 28 27 27 27 28 26
33 33 32 32 33 33 32 33 33 34 35 35 34 34 34 34 34 37 36 34 34 35 34 34 34 34 33 33 33 33 33 33 33 30 29 28 27 27 24 25 28 24 26
31 32 33 33 33 33 33 33 37 37 37 38 39 37 34 37 38 38 38 38 37 37 34 33 34 34 34 34 33 32 32 32 32 31 31 30 28 27 24 21 22 23 23
26 29 30 33 34 32 32 32 32 36 38 38 38 38 38 37 38 38 38 38 38 37 34 34 34 34 35 34 34 33 32 32 31 32 31 30 29 27 24 23 23 21 21
16 27 29 32 33 33 32 32 32 32 33 34 37 37 38 38 38 38 38 37 34 35 34 34 35 35 35 34 34 34 33 31 30 30 30 30 27 26 24 23 21 21 17
18 27 29 30 31 33 33 32 32 33 33 34 34 36 32 37 38 38 38 34 34 33 34 34 34 34 34 35 34 34 34 31 31 30 29 28 24 24 23 23 21 19 13
12 14 25 30 30 31 32 32 33 32 33 33 33 34 33 33 33 33 34 34 34 34 34 34 35 35 34 34 34 34 33 32 31 31 30 29 25 24 22 19 17 15 17
10 12 12 16 24 31 31 31 31 32 33 34 33 33 36 33 34 34 34 34 34 34 34 34 34 35 35 34 34 34 33 33 32 31 30 29 26 24 23 21 19 18 18
12 12 17 27 28 28 29 30 31 31 32 33 34 34 36 33 33 34 34 34 34 34 34 35 34 34 35 35 34 34 34 34 33 33 31 28 27 26 22 20 18 18 17
12 13 17 24 27 28 29 30 30 31 32 32 33 34 34 33 33 34 34 34 34 34 34 34 34 34 35 35 35 35 34 34 34 34 32 28 27 26 23 21 20 18 17
6 7 9 12 19 23 27 29 29 30 31 32 32 33 34 34 34 34 34 34 34 34 34 34 34 35 34 34 35 35 35 35 35 34 33 29 28 27 25 23 21 20 19
1 2 4 5 3 8 15 19 24 29 30 32 31 32 34 34 34 35 34 34 34 34 34 34 34 34 35 34 34 35 35 34 34 35 33 31 29 27 26 25 23 21 20
2 2 2 4 4 5 6 9 13 17 21 25 28 31 33 33 34 34 34 34 34 35 34 34 34 34 34 35 35 35 34 33 33 33 32 31 29 27 28 26 24 22 21
MSLP
1017.76 1018.03 1018.28 1018.31 1018.43 1018.67 1018.95 1018.87 1018.95 1018.93 1018.83 1018.84 1018.72 1018.35 1018.23 1017.88 1017.92 1018.11 1018.66 1018.71 1018.97 1019.10 1019.18 1019.20 1019.75 1020.01 1020.33 1020.66 1020.96 1021.36 1021.81 1022.23 1024.24 1026.62 1027.06 1027.59 1027.75 1027.91 1028.46 1028.89 1029.17 1029.57 1029.96
1017.34 1017.81 1018.06 1018.12 1018.33 1018.41 1018.80 1018.80 1018.96 1018.87 1018.69 1018.70 1018.75 1018.56 1018.34 1018.09 1018.01 1018.11 1018.62 1019.01 1019.06 1019.58 1019.73 1019.86 1020.09 1020.43 1020.70 1021.05 1021.48 1022.09 1022.67 1023.36 1023.75 1026.20 1027.61 1028.20 1028.64 1028.94 1029.18 1029.61 1030.12 1030.59 1030.82
1017.18 1017.55 1017.86 1017.98 1018.15 1018.29 1018.53 1018.67 1018.81 1018.76 1018.76 1018.84 1018.77 1018.58 1018.47 1018.18 1018.18 1018.25 1018.36 1019.12 1019.54 1019.54 1019.82 1020.05 1020.19 1020.55 1021.09 1021.57 1021.87 1022.48 1023.32 1024.15 1025.08 1025.63 1027.44 1028.60 1029.34 1029.83 1030.27 1030.83 1031.28 1031.77 1031.98
1016.90 1017.23 1017.42 1017.72 1017.82 1018.13 1018.24 1018.52 1018.62 1018.68 1018.71 1018.48 1018.71 1018.75 1018.48 1018.25 1018.09 1018.39 1018.54 1018.80 1019.45 1019.89 1019.88 1020.12 1020.41 1020.64 1020.90 1021.71 1022.39 1022.97 1023.64 1024.50 1025.39 1026.23 1027.37 1028.61 1029.40 1030.40 1030.76 1031.31 1032.20 1032.64 1032.87
1016.62 1017.00 1017.22 1017.33 1017.53 1017.87 1018.05 1018.28 1018.53 1018.57 1018.58 1018.56 1018.50 1018.59 1018.51 1018.28 1018.13 1018.20 1018.67 1018.97 1019.26 1019.80 1020.14 1020.26 1020.59 1021.04 1021.26 1021.62 1022.16 1023.05 1023.65 1024.54 1025.42 1026.42 1027.44 1028.41 1029.36 1030.21 1030.65 1031.43 1032.22 1032.93 1033.60
1016.27 1016.51 1016.91 1017.26 1017.46 1017.74 1017.93 1018.15 1018.49 1018.63 1018.34 1018.21 1018.31 1018.54 1018.50 1018.28 1018.17 1018.25 1018.42 1018.87 1019.39 1019.73 1020.25 1020.52 1020.80 1021.42 1021.84 1021.79 1022.27 1022.74 1022.96 1023.71 1024.99 1025.88 1026.87 1027.53 1028.53 1029.40 1030.25 1030.95 1031.66 1032.72 1033.58
1016.13 1016.46 1016.73 1017.04 1017.48 1017.68 1017.88 1018.15 1018.29 1018.38 1018.40 1018.40 1018.21 1018.28 1018.23 1018.26 1018.24 1018.25 1018.47 1018.81 1019.24 1019.65 1020.14 1020.64 1021.05 1021.36 1021.69 1022.26 1022.71 1023.09 1023.56 1023.89 1023.78 1024.16 1025.56 1026.56 1027.65 1028.22 1029.20 1030.54 1031.22 1031.87 1032.68
1016.22 1016.59 1016.86 1017.12 1017.45 1017.69 1017.91 1018.20 1018.36 1018.12 1018.25 1018.13 1018.31 1018.25 1018.17 1018.09 1018.11 1018.18 1018.48 1018.78 1019.19 1019.58 1020.12 1020.60 1021.06 1021.29 1021.52 1022.11 1022.70 1023.25 1023.85 1024.17 1024.26 1024.59 1025.07 1025.75 1026.55 1027.66 1028.58 1029.36 1030.88 1032.03 1033.12
1016.27 1016.48 1016.73 1016.95 1017.19 1017.44 1017.82 1018.13 1018.31 1018.52 1018.26 1018.28 1018.10 1018.24 1018.29 1018.06 1017.97 1018.01 1018.41 1018.75 1019.21 1019.64 1020.10 1020.62 1021.12 1021.59 1021.89 1021.85 1022.61 1023.51 1024.07 1024.39 1024.48 1024.68 1025.01 1025.68 1026.52 1027.45 1028.16 1029.37 1030.96 1031.99 1033.26
1016.71 1016.74 1016.76 1016.83 1017.13 1017.38 1017.50 1017.78 1017.81 1018.33 1018.39 1018.45 1018.30 1018.23 1018.47 1018.29 1018.03 1018.05 1018.28 1018.69 1019.30 1019.98 1020.11 1020.62 1021.07 1021.68 1021.75 1022.01 1022.46 1023.33 1024.06 1024.38 1024.64 1024.98 1025.55 1026.07 1026.72 1027.50 1028.00 1028.20 1029.26 1030.38 1031.60
1016.91 1016.81 1016.91 1017.09 1017.32 1017.47 1017.70 1017.90 1017.87 1018.09 1018.20 1018.67 1018.57 1018.33 1018.25 1018.73 1018.30 1018.23 1018.31 1018.61 1019.03 1019.86 1020.42 1020.59 1020.85 1021.21 1021.75 1022.07 1022.21 1022.84 1023.35 1024.19 1024.84 1025.20 1025.88 1026.64 1027.23 1027.76 1028.24 1028.61 1029.07 1029.53 1030.30
1017.32 1017.28 1017.45 1017.36 1017.40 1017.48 1017.62 1017.91 1017.98 1018.33 1018.04 1018.49 1018.86 1018.80 1018.01 1018.44 1018.72 1018.38 1018.47 1018.56 1018.81 1019.30 1019.91 1020.32 1020.69 1021.07 1021.38 1021.81 1022.44 1022.80 1023.37 1024.26 1024.92 1025.52 1026.09 1026.77 1027.37 1027.91 1028.44 1028.95 1029.56 1030.11 1030.53
1017.93 1018.01 1017.82 1017.78 1017.75 1017.77 1017.83 1018.04 1018.27 1018.24 1018.45 1018.38 1018.79 1018.93 1018.51 1018.09 1018.42 1018.70 1018.55 1018.72 1018.89 1019.09 1019.38 1019.85 1020.49 1021.10 1021.58 1021.93 1022.44 1022.89 1023.66 1024.21 1024.83 1025.45 1026.01 1026.67 1027.29 1027.88 1028.81 1029.66 1030.38 1030.77 1031.29
1018.48 1018.40 1018.28 1018.14 1018.01 1017.97 1018.01 1018.10 1018.21 1018.10 1018.31 1018.50 1018.67 1018.69 1018.56 1018.45 1018.09 1018.43 1018.73 1018.69 1018.90 1019.28 1019.54 1019.98 1020.51 1021.12 1021.67 1021.98 1022.70 1023.31 1023.65 1024.06 1024.39 1024.93 1025.74 1026.83 1027.80 1028.33 1028.83 1029.33 1030.28 1030.73 1031.44
1018.86 1018.75 1018.56 1018.50 1018.37 1018.29 1018.23 1018.23 1018.12 1017.94 1017.80 1017.91 1018.20 1018.49 1018.51 1018.30 1018.11 1018.07 1018.43 1018.71 1018.87 1019.18 1019.73 1020.27 1020.86 1021.30 1021.77 1022.19 1022.64 1023.14 1023.44 1023.88 1024.34 1024.88 1025.76 1026.64 1027.54 1028.20 1028.89 1029.43 1029.85 1030.62 1031.16
1019.24 1019.20 1019.13 1018.87 1018.59 1018.46 1018.36 1018.21 1017.96 1017.81 1017.80 1017.87 1017.81 1017.79 1017.92 1018.17 1017.80 1017.92 1018.26 1018.55 1018.86 1019.19 1019.71 1019.98 1020.44 1020.75 1021.03 1021.52 1021.99 1022.57 1023.12 1023.38 1023.77 1024.36 1025.34 1026.06 1026.70 1027.47 1028.37 1029.18 1029.61 1030.13 1030.73
1019.77 1019.67 1019.49 1019.14 1018.80 1018.56 1018.39 1018.32 1018.07 1017.74 1017.55 1017.63 1017.59 1017.58 1017.78 1017.72 1017.70 1017.66 1018.00 1018.34 1018.67 1019.17 1019.22 1019.46 1019.76 1019.99 1020.27 1020.62 1021.03 1021.45 1022.01 1022.55 1023.17 1023.64 1024.22 1025.13 1026.09 1026.93 1027.86 1028.72 1029.24 1029.91 1030.77
1020.51 1019.86 1019.65 1019.33 1018.97 1018.73 1018.46 1018.26 1018.26 1018.22 1017.98 1017.71 1017.39 1017.39 1017.33 1017.39 1017.39 1017.41 1017.68 1018.21 1018.63 1018.73 1018.86 1018.89 1018.97 1019.15 1019.47 1019.71 1020.17 1020.68 1021.24 1021.94 1022.59 1023.13 1023.69 1024.22 1025.28 1026.17 1027.22 1028.05 1028.92 1029.71 1030.55
1020.98 1020.34 1019.73 1019.42 1019.12 1018.82 1018.59 1018.30 1018.05 1017.90 1017.77 1017.66 1017.51 1017.33 1017.21 1017.07 1017.15 1017.17 1017.28 1017.62 1017.82 1018.08 1018.15 1018.11 1018.29 1018.51 1018.71 1019.01 1019.26 1019.71 1020.22 1020.95 1021.63 1022.34 1022.95 1023.51 1024.47 1025.48 1026.44 1027.35 1028.25 1029.15 1030.27
1021.24 1020.69 1019.93 1019.38 1019.28 1018.94 1018.64 1018.31 1017.98 1017.75 1017.56 1017.34 1017.20 1017.30 1017.25 1017.18 1016.90 1016.75 1016.90 1017.01 1017.21 1017.28 1017.44 1017.39 1017.45 1017.74 1017.97 1018.28 1018.70 1019.08 1019.64 1020.27 1020.72 1021.46 1022.07 1022.72 1023.65 1024.57 1025.58 1026.66 1027.49 1028.27 1028.92
1021.46 1020.99 1020.36 1019.90 1019.35 1018.95 1018.62 1018.28 1018.07 1017.84 1017.50 1017.20 1017.03 1016.87 1016.82 1016.88 1016.71 1016.61 1016.57 1016.58 1016.46 1016.53 1016.70 1016.88 1016.86 1016.91 1017.30 1017.39 1017.86 1018.24 1018.59 1019.12 1019.72 1020.33 1021.04 1021.88 1022.72 1023.69 1024.55 1025.63 1026.64 1027.43 1028.37
1021.45 1021.06 1020.38 1019.77 1019.45 1019.11 1018.71 1018.34 1018.01 1017.76 1017.49 1017.15 1016.77 1016.52 1016.42 1016.32 1016.24 1016.24 1016.11 1016.02 1015.96 1016.06 1015.98 1016.03 1016.19 1016.27 1016.45 1016.50 1016.74 1017.16 1017.44 1017.88 1018.38 1019.06 1019.72 1020.59 1021.67 1022.62 1023.70 1024.77 1025.71 1026.50 1027.34
1021.79 1021.45 1020.69 1020.04 1019.64 1019.26 1018.84 1018.45 1018.04 1017.69 1017.38 1017.10 1016.77 1016.43 1016.22 1016.07 1015.87 1015.66 1015.53 1015.46 1015.48 1015.48 1015.46 1015.44 1015.49 1015.51 1015.59 1015.74 1015.72 1015.89 1016.09 1016.39 1016.83 1017.45 1018.28 1019.22 1020.28 1021.32 1022.43 1023.55 1024.49 1025.41 1026.20
1022.09 1021.91 1021.45 1020.89 1020.36 1019.71 1018.94 1018.36 1017.99 1017.62 1017.29 1016.95 1016.60 1016.25 1015.95 1015.68 1015.42 1015.20 1015.10 1015.03 1014.94 1014.84 1014.71 1014.69 1014.67 1014.69 1014.75 1014.83 1014.83 1015.06 1015.15 1015.49 1015.87 1016.39 1016.91 1017.88 1018.91 1020.10 1021.13 1022.12 1022.93 1023.77 1024.72
1022.37 1022.29 1021.84 1021.42 1020.90 1020.38 1019.74 1019.02 1018.32 1017.59 1017.02 1016.62 1016.21 1015.89 1015.56 1015.26 1015.01 1014.78 1014.59 1014.49 1014.35 1014.16 1014.00 1013.84 1013.79 1013.73 1013.69 1013.79 1013.94 1013.99 1014.33 1014.66 1015.00 1015.45 1016.06 1016.64 1017.38 1018.37 1019.67 1020.61 1021.62 1022.63 1023.44
1022.35 1022.07 1021.85 1021.57 1021.06 1020.51 1019.93 1019.34 1018.75 1018.12 1017.49 1016.87 1016.17 1015.48 1015.02 1014.75 1014.44 1014.20 1014.01 1013.81 1013.65 1013.48 1013.34 1013.16 1013.03 1012.96 1012.93 1012.89 1012.91 1013.08 1013.38 1013.84 1014.24 1014.69 1015.16 1015.99 1016.65 1017.22 1018.11 1019.20 1020.22 1021.37 1022.42
Wind_Speed
6 5 6 5 5 4 4 4 4 3 2 1 2 3 4 4 2 4 3 3 5 5 4 7 6 5 5 4 6 6 5 9 13 4 4 6 9 12 11 10 10 10 10
6 5 6 5 4 5 4 4 4 4 2 2 1 2 3 1 3 3 4 3 4 5 6 7 8 5 7 6 6 8 8 7 15 14 4 4 7 9 11 12 9 8 9
6 6 6 6 5 5 5 4 4 3 4 3 2 2 3 1 4 2 3 4 4 5 6 6 9 10 8 6 7 8 8 8 7 11 9 4 4 6 10 10 10 9 8
6 6 6 6 6 5 5 5 5 4 4 3 2 4 3 3 4 4 3 2 4 4 5 6 6 7 11 11 8 9 10 9 9 9 9 7 5 4 6 8 7 5 7
7 6 7 6 5 5 5 5 4 4 3 4 2 3 4 3 3 6 5 4 4 5 5 5 5 7 9 10 10 10 12 9 9 9 8 6 6 7 8 4 7 7 6
7 7 6 5 5 5 5 5 4 5 4 4 3 4 5 3 3 8 7 5 5 5 5 5 6 8 9 12 12 13 14 16 12 9 7 10 11 6 7 8 10 6 4
6 5 6 6 5 5 5 5 5 5 4 4 4 4 5 4 4 9 10 5 6 5 6 5 5 5 7 7 9 9 6 7 10 13 14 13 12 13 12 11 7 3 4
5 5 5 5 5 4 4 5 4 4 5 4 5 5 4 4 5 9 11 6 5 6 6 5 5 7 9 10 9 8 6 5 6 4 9 9 7 12 12 8 8 7 10
5 5 5 5 5 5 5 5 3 3 3 4 3 4 4 5 5 8 9 6 6 6 6 6 6 5 8 13 9 7 5 2 2 5 9 13 19 21 15 12 7 10 4
3 1 3 5 5 5 5 5 3 2 3 2 4 1 4 6 3 7 7 5 5 3 5 6 8 6 14 12 10 9 7 5 6 5 6 11 17 16 21 10 12 11 5
2 1 2 3 4 4 3 2 3 4 2 2 4 2 2 5 4 5 8 5 6 5 4 4 4 13 13 11 10 9 7 8 8 8 7 7 7 10 8 5 7 5 4
4 5 4 3 1 2 4 2 2 3 3 2 2 4 1 1 6 4 6 5 9 7 7 3 3 11 15 13 8 12 18 12 7 7 8 7 8 7 4 5 5 5 4
6 5 4 3 3 2 2 4 1 2 2 2 1 3 2 2 0 7 5 5 8 4 4 6 10 12 12 9 12 16 13 7 8 7 7 6 4 5 8 6 6 8 8
7 6 5 4 3 2 1 0 1 3 2 0 2 4 2 2 2 1 2 2 5 4 6 5 7 7 6 7 8 10 5 6 8 7 6 5 5 5 5 3 3 4 4
6 6 5 4 4 3 2 2 2 3 2 4 3 2 1 3 3 5 6 3 2 4 6 5 4 5 5 5 5 5 5 6 6 5 7 7 6 6 3 2 4 2 3
5 5 4 4 3 3 4 5 5 7 7 9 7 5 3 7 3 4 8 9 11 15 3 3 5 6 8 9 8 7 6 8 7 8 7 8 8 9 7 3 2 3 4
4 3 3 4 4 2 2 4 5 5 6 9 9 9 10 6 8 8 7 9 12 12 2 5 6 7 8 8 9 9 9 8 8 8 9 9 8 7 9 6 6 5 3
3 5 3 4 4 3 2 1 2 5 6 5 5 7 9 10 9 9 8 8 4 9 5 5 7 8 8 9 8 9 7 8 9 8 8 9 9 9 9 8 7 6 6
3 3 4 5 5 6 5 3 2 3 4 6 6 5 4 9 9 8 11 4 6 7 7 6 6 6 7 7 7 8 9 9 9 9 9 9 9 9 9 8 8 10 8
3 6 5 4 5 5 5 6 5 3 4 4 4 5 2 1 2 3 4 6 6 6 6 8 6 6 7 7 7 7 8 9 10 10 9 9 9 10 10 10 10 12 10
2 3 5 3 3 5 5 6 6 6 6 6 5 3 6 5 5 5 5 7 7 7 7 7 6 7 7 8 8 8 9 9 10 10 10 9 10 10 9 9 9 9 8
3 3 3 5 4 4 5 5 6 6 7 8 7 6 10 4 5 6 6 6 6 7 6 6 7 7 8 9 10 10 10 11 11 11 11 11 10 10 10 10 10 10 10
4 4 5 5 5 6 6 6 6 7 7 7 8 8 6 5 5 6 7 5 5 6 6 6 7 7 7 8 9 10 11 12 12 12 12 12 12 11 11 11 12 11 11
3 3 4 4 5 7 5 6 5 7 7 9 6 8 8 8 7 7 6 6 6 6 6 7 8 10 8 9 8 9 10 9 10 13 16 13 12 13 11 11 12 13 12
2 3 3 4 3 4 6 7 8 7 7 8 7 7 9 9 8 8 6 6 7 7 7 7 7 9 12 13 13 14 13 13 13 14 12 15 17 19 14 12 13 12 14
3 3 3 3 4 4 4 4 6 7 8 8 7 7 8 8 8 7 7 7 7 7 8 7 8 13 13 12 15 16 16 16 16 18 13 12 13 13 13 15 19 12 15
Wind_Direction
189 191 197 206 190 189 206 236 242 248 227 244 301 336 327 353 358 89 92 104 106 96 70 111 97 108 94 81 82 82 80 108 112 87 74 71 78 93 85 79 75 75 75
191 188 202 202 190 184 215 232 256 257 247 224 252 311 298 355 293 142 129 127 126 120 126 128 125 114 96 93 105 105 108 118 126 125 110 87 76 81 89 84 77 74 80
182 183 196 205 196 198 212 219 243 246 273 282 263 239 290 268 170 200 158 155 147 141 147 141 149 136 118 108 107 109 110 114 125 133 127 102 93 96 94 81 76 77 69
191 189 190 200 202 205 204 216 221 225 253 259 266 274 262 259 162 159 157 163 134 140 149 143 146 149 140 134 126 127 127 123 119 121 122 123 116 116 104 113 99 75 80
186 189 204 201 194 198 195 212 219 220 235 259 258 280 264 253 185 150 162 155 146 137 142 137 133 120 127 133 139 146 140 135 135 136 140 134 137 154 154 136 117 108 69
188 199 178 190 189 199 197 198 216 239 231 223 242 273 265 249 201 168 159 149 149 147 152 130 124 121 128 133 137 156 160 151 155 152 163 165 165 153 141 145 136 141 116
187 184 177 177 194 201 197 189 204 226 230 245 236 252 248 263 249 178 167 156 154 153 147 146 137 119 127 129 133 128 122 170 166 167 164 177 166 167 152 151 158 122 117
174 175 179 178 193 199 184 207 222 218 225 217 247 235 246 256 253 176 168 154 149 143 150 151 163 161 151 146 147 138 144 159 164 164 180 167 157 154 155 143 127 93 105
162 174 182 182 187 181 197 207 219 249 233 241 233 246 244 263 232 165 157 146 151 153 147 147 146 147 153 141 133 128 126 117 53 153 140 141 149 155 148 130 130 136 140
28 267 201 179 178 192 195 200 166 237 231 250 240 225 321 284 225 181 151 145 142 138 147 149 156 168 160 160 146 152 159 183 145 109 119 135 150 158 160 164 155 159 134
343 77 129 166 184 191 199 164 188 206 161 268 252 203 77 306 276 213 167 164 160 152 171 174 181 163 171 172 158 169 173 135 130 122 122 133 145 155 166 146 172 165 130
35 66 54 42 127 172 163 186 161 237 165 168 308 284 141 322 306 238 215 174 163 161 186 177 172 173 171 168 154 140 139 130 133 134 140 149 158 164 140 107 89 80 52
55 53 40 37 34 9 157 166 161 156 200 159 219 269 265 132 174 302 221 196 188 166 158 172 161 173 165 153 149 149 145 148 150 155 162 163 153 124 113 88 79 86 71
61 53 40 29 13 9 344 110 186 168 164 255 235 248 282 277 166 187 282 177 143 103 121 128 142 140 141 129 140 153 160 166 166 165 155 114 116 135 136 133 130 144 100
47 37 33 23 9 338 313 277 218 248 185 181 199 201 252 276 255 192 187 194 157 141 118 116 132 142 145 155 158 168 161 155 162 138 148 149 147 146 125 143 130 122 122
44 21 7 4 3 350 329 312 280 254 252 254 234 194 196 232 260 228 216 192 160 151 124 151 179 179 183 181 180 177 182 181 169 156 159 165 166 167 160 142 130 154 146
30 358 343 347 345 335 339 333 323 328 297 247 247 250 236 218 210 227 223 197 172 165 195 187 191 191 197 189 187 188 190 191 169 172 169 170 167 165 160 172 163 155 142
1 338 329 323 319 313 290 279 295 302 303 303 294 255 245 245 223 208 210 166 167 203 203 198 207 202 198 193 190 192 181 167 177 176 176 169 169 165 169 173 174 173 153
359 352 329 319 312 306 298 278 255 267 278 290 296 283 282 247 238 216 185 186 196 210 218 221 212 204 205 202 197 189 182 179 181 179 177 173 167 168 178 175 172 165 139
343 329 327 319 312 308 304 302 293 281 277 280 284 291 288 247 209 193 199 199 210 220 216 219 217 209 202 197 191 188 181 179 178 181 183 177 168 175 177 175 174 173 182
318 310 301 305 290 300 301 299 298 294 286 281 274 246 247 242 255 228 219 215 218 220 219 226 218 213 208 196 191 190 188 188 188 184 180 179 170 178 174 174 175 172 170
329 303 301 318 308 299 294 291 293 291 290 290 293 290 276 258 246 255 239 234 229 230 225 215 221 217 213 205 197 195 197 196 190 188 185 176 175 174 167 171 169 171 167
351 342 331 322 300 294 293 289 287 288 289 288 293 293 286 265 260 258 255 244 234 233 224 219 227 225 213 211 203 200 199 203 198 186 183 175 175 175 171 175 176 174 177
339 329 324 318 319 324 301 287 275 281 286 288 286 289 287 284 279 268 264 260 248 242 228 223 222 223 217 212 207 209 211 204 191 190 177 175 177 173 174 176 179 181 176
315 304 310 298 290 296 310 306 314 300 282 279 278 281 285 284 278 278 262 254 257 254 250 236 232 231 227 217 213 209 213 203 192 189 185 180 180 176 181 183 181 179 177
296 280 266 276 279 272 271 280 287 295 293 300 300 287 279 279 278 274 273 263 257 256 254 247 238 232 229 228 224 216 207 201 195 190 181 183 184 180 181 184 180 178 179